K0JRF-13 Weather Reports


time (UTC)temp
F
wind
direction
speed
knots
gust
knots
rain 1hr
in
rain 24hr
in
rain mn
in
humidity
%
barometer
mb
20260831135908 71 273 0.9 4.3 0.00 0.27 0.27 86 1017.6
20260831134907 70 219 2.6 4.3 0.00 0.27 0.27 87 1017.9
20260831133908 69 226 2.6 3.5 0.00 0.27 0.27 88 1017.9
20260831132908 69 275 1.7 4.3 0.00 0.27 0.27 87 1017.9
20260831131908 68 353 5.2 5.2 0.00 0.27 0.27 90 1018.3
20260831130908 69 8 2.6 3.5 0.00 0.27 0.27 90 1018.3
20260831125907 68 266 4.3 5.2 0.00 0.27 0.27 89 1018.3
20260831124908 68 115 3.5 5.2 0.00 0.27 0.27 89 1018.3
20260831123908 67 277 1.7 5.2 0.00 0.27 0.27 90 1018.6
20260831122908 67 342 1.7 3.5 0.00 0.27 0.27 90 1018.3
20260831121907 67 2 1.7 4.3 0.00 0.27 0.27 90 1018.3
20260831120908 67 265 3.5 4.3 0.00 0.27 0.27 90 1018.3
20260831115908 66 341 1.7 3.5 0.00 0.27 0.27 91 1017.9
20260831114908 66 285 1.7 5.2 0.00 0.27 0.27 92 1017.9
20260831113908 66 56 1.7 3.5 0.00 0.27 0.27 93 1017.9
20260831112908 65 13 1.7 3.5 0.00 0.27 0.27 93 1017.9
20260831111908 65 39 2.6 2.6 0.00 0.27 0.27 94 1017.9
20260831110908 65 166 0.0 2.6 0.00 0.27 0.27 95 1017.9
20260831105908 65 117 1.7 3.5 0.00 0.27 0.27 95 1017.9
20260831104908 65 82 1.7 2.6 0.00 0.27 0.27 96 1017.9
20260831103908 65 170 1.7 1.7 0.01 0.27 0.27 96 1017.6
20260831102908 65 310 3.5 3.5 0.06 0.27 0.27 96 1017.9
20260831101908 65 92 1.7 3.5 0.08 0.27 0.27 96 1017.9
20260831100908 65 213 4.3 6.1 0.09 0.27 0.27 96 1018.3
20260831095908 64 116 5.2 7.0 0.09 0.27 0.27 97 1018.3
20260831094908 64 169 3.5 5.2 0.08 0.26 0.26 96 1018.3
20260831093908 64 152 1.7 5.2 0.08 0.26 0.26 97 1018.3
20260831092908 64 163 1.7 1.7 0.03 0.21 0.21 96 1018.6
20260831091908 64 205 0.0 1.7 0.01 0.19 0.19 96 1018.6
20260831090908 64 168 0.9 2.6 0.01 0.18 0.18 96 1018.3
20260831085908 64 329 1.7 2.6 0.02 0.18 0.18 96 1018.6
20260831084908 64 291 4.3 7.0 0.01 0.18 0.18 95 1018.6
20260831083908 64 114 1.7 3.5 0.02 0.18 0.18 94 1018.3
20260831082908 64 209 1.7 2.6 0.02 0.18 0.18 95 1017.9
20260831081908 64 203 1.7 2.6 0.01 0.17 0.17 94 1018.3
20260831080907 64 215 1.7 2.6 0.01 0.17 0.17 95 1018.3
20260831075907 64 101 1.7 3.5 0.01 0.17 0.17 95 1017.9
20260831074907 64 159 0.9 1.7 0.02 0.17 0.17 94 1018.6
20260831073907 64 129 0.0 2.6 0.02 0.16 0.16 94 1018.6
20260831072907 65 287 0.0 1.7 0.02 0.16 0.16 94 1018.3
20260831071907 65 168 2.6 2.6 0.03 0.16 0.16 95 1018.3
20260831070907 65 147 1.7 4.3 0.03 0.16 0.16 95 1018.6
20260831065907 65 129 1.7 2.6 0.04 0.15 0.15 96 1018.3
20260831064907 65 187 0.9 1.7 0.05 0.15 0.15 95 1018.3
20260831063907 65 319 0.0 1.7 0.05 0.14 0.14 96 1018.3
20260831062907 65 154 1.7 1.7 0.05 0.14 0.14 95 1018.3
20260831061907 65 34 0.0 3.5 0.04 0.13 0.13 95 1018.3
20260831060907 65 286 2.6 3.5 0.04 0.13 0.13 95 1019.3
20260831055907 65 198 0.9 3.5 0.04 0.11 0.11 96 1019.0
20260831054907 65 307 1.7 2.6 0.04 0.10 0.10 96 1019.3
20260831053907 65 239 0.0 2.6 0.04 0.09 0.09 96 1019.3
20260831052907 65 156 1.7 1.7 0.04 0.09 0.09 96 1019.0
20260831051907 65 293 0.0 0.9 0.07 0.08 0.08 95 1019.0
20260831050907 65 110 0.0 1.7 0.07 0.08 0.08 95 1019.0
20260831045907 65 19 2.6 2.6 0.08 0.08 0.08 95 1019.3
20260831044907 66 319 3.5 3.5 0.08 0.05 0.05 95 1019.3
20260831043907 66 18 1.7 4.3 0.10 0.05 0.05 96 1019.3
20260831042907 66 291 1.7 2.6 0.10 0.05 0.05 95 1020.0
20260831041907 66 334 2.6 4.3 0.08 0.01 0.01 97 1019.3
20260831040907 66 161 1.7 1.7 0.08 0.01 0.01 97 1019.6
20260831035907 66 114 0.9 1.7 0.08 0.30 0.30 97 1020.0
20260831034907 66 168 1.7 1.7 0.08 0.28 0.28 97 1020.0
20260831033907 66 230 1.7 2.6 0.07 0.25 0.25 97 1020.0
20260831032907 66 211 0.9 2.6 0.07 0.25 0.25 96 1020.3
20260831031908 66 310 0.0 1.7 0.06 0.24 0.24 96 1020.3
20260831030908 66 62 0.0 0.9 0.06 0.23 0.23 96 1020.3
20260831025907 66 146 0.9 1.7 0.05 0.22 0.22 96 1020.3
20260831024908 66 180 1.7 1.7 0.04 0.19 0.19 97 1020.0
20260831023907 67 132 0.0 1.7 0.04 0.18 0.18 96 1020.0
20260831022907 67 151 0.0 0.0 0.04 0.18 0.18 96 1020.3
20260831021907 67 162 3.5 3.5 0.05 0.17 0.17 96 1020.0
20260831020908 67 205 2.6 3.5 0.05 0.17 0.17 97 1020.3
20260831015908 67 180 1.7 2.6 0.05 0.17 0.17 97 1020.3
20260831014907 67 324 0.0 1.7 0.04 0.16 0.16 96 1020.3
20260831013907 67 169 0.9 1.7 0.03 0.14 0.14 96 1020.7
20260831012907 67 210 0.9 1.7 0.02 0.13 0.13 96 1020.7
20260831011907 67 224 0.0 1.7 0.02 0.13 0.13 96 1020.7
20260831010907 67 206 0.9 1.7 0.02 0.12 0.12 96 1020.7
20260831005908 67 117 0.0 0.0 0.02 0.12 0.12 95 1021.0
20260831004908 67 275 0.9 1.7 0.02 0.11 0.11 95 1020.7
20260831003907 68 289 2.6 3.5 0.02 0.11 0.11 95 1020.3
20260831002908 67 207 2.6 3.5 0.02 0.11 0.11 95 1020.0
20260831001907 67 258 0.9 1.7 0.02 0.11 0.11 94 1020.0
20260831000908 68 200 1.7 2.6 0.02 0.11 0.11 94 1019.6
20260830235907 68 294 0.0 0.9 0.01 0.10 0.10 94 1020.0
20260830234908 68 204 0.0 0.9 0.01 0.09 0.09 94 1019.6
20260830233908 68 129 0.0 0.9 0.01 0.09 0.09 93 1019.6
20260830232908 68 214 0.9 1.7 0.01 0.09 0.09 93 1019.6
20260830231908 68 256 0.9 0.9 0.01 0.09 0.09 92 1019.3
20260830230908 69 339 0.9 2.6 0.01 0.09 0.09 92 1019.3
20260830225908 69 226 0.9 1.7 0.02 0.09 0.09 91 1019.0
20260830224908 69 217 0.0 1.7 0.02 0.09 0.09 90 1019.0
20260830223908 70 342 1.7 2.6 0.02 0.09 0.09 87 1019.0
20260830222908 70 327 0.0 0.9 0.01 0.08 0.08 85 1019.0
20260830221908 70 292 2.6 2.6 0.01 0.08 0.08 85 1018.6
20260830220908 70 274 0.0 1.7 0.01 0.08 0.08 87 1018.6
20260830215908 70 240 0.9 3.5 0.01 0.08 0.08 87 1018.6
20260830214908 70 232 0.9 1.7 0.01 0.07 0.07 88 1018.6
20260830213908 70 226 0.9 1.7 0.01 0.07 0.07 84 1019.0
20260830212908 70 337 1.7 2.6 0.01 0.07 0.07 84 1018.6
20260830211908 69 336 0.9 1.7 0.00 0.06 0.06 85 1018.6
20260830210908 70 302 0.9 1.7 0.01 0.06 0.06 85 1019.0
20260830205908 70 225 0.9 0.9 0.01 0.06 0.06 84 1019.0
20260830204908 70 327 0.0 1.7 0.01 0.06 0.06 86 1019.0
20260830203908 70 224 0.0 0.0 0.01 0.06 0.06 87 1019.0
20260830202908 70 148 0.0 0.9 0.02 0.06 0.06 83 1019.3
20260830201908 71 341 0.9 1.7 0.02 0.06 0.06 85 1019.6
20260830200908 70 281 2.6 2.6 0.02 0.05 0.05 87 1019.6
20260830195908 70 267 0.9 2.6 0.01 0.05 0.05 84 1020.0
20260830194908 71 264 0.9 5.2 0.01 0.05 0.05 82 1020.0
20260830193908 71 247 0.9 2.6 0.01 0.05 0.05 80 1020.0
20260830192908 71 250 1.7 4.3 0.00 0.04 0.04 77 1019.6
20260830191908 71 282 3.5 3.5 0.00 0.04 0.04 76 1020.0
20260830190908 72 184 0.9 3.5 0.00 0.04 0.04 78 1020.0
20260830185908 71 257 1.7 7.0 0.00 0.04 0.04 76 1020.3
20260830184908 71 213 4.3 4.3 0.00 0.04 0.04 78 1020.3
20260830183908 72 233 2.6 10.4 0.00 0.04 0.04 77 1020.3
20260830182908 71 282 0.9 5.2 0.00 0.04 0.04 77 1020.3
20260830181908 72 285 5.2 5.2 0.00 0.04 0.04 73 1020.3
20260830180908 72 265 2.6 4.3 0.00 0.04 0.04 70 1020.3
20260830175908 71 257 2.6 4.3 0.01 0.04 0.04 72 1020.3
20260830174908 71 250 1.7 4.3 0.01 0.04 0.04 80 1020.7
20260830173908 70 291 4.3 6.1 0.02 0.04 0.04 82 1020.7
20260830172908 69 240 1.7 4.3 0.02 0.04 0.04 84 1020.7
20260830171908 70 68 1.7 5.2 0.02 0.04 0.04 85 1020.7
20260830170908 69 219 2.6 2.6 0.03 0.04 0.04 87 1020.7
20260830165908 69 306 0.9 4.3 0.03 0.03 0.03 84 1021.0
20260830164908 69 240 1.7 2.6 0.02 0.03 0.03 85 1020.7
20260830163908 70 274 2.6 3.5 0.02 0.02 0.02 83 1021.0
20260830162908 70 276 1.7 1.7 0.02 0.02 0.02 81 1020.7
20260830161908 71 24 1.7 3.5 0.01 0.01 0.01 80 1020.7
20260830160908 70 286 0.9 4.3 0.01 0.01 0.01 82 1020.3
20260830155908 69 214 0.0 1.7 0.00 0.00 0.00 84 1020.3
20260830154908 69 197 0.9 1.7 0.00 0.00 0.00 83 1020.7
20260830153908 69 235 0.9 2.6 0.00 0.00 0.00 80 1020.7
20260830152908 68 212 0.0 1.7 0.00 0.00 0.00 84 1020.7
20260830151908 69 217 0.0 1.7 0.00 0.00 0.00 78 1020.7
20260830150908 70 224 2.6 2.6 0.00 0.00 0.00 80 1021.0
20260830145908 67 198 0.0 1.7 0.00 0.00 0.00 86 1020.7
20260830144908 67 230 0.0 1.7 0.00 0.00 0.00 86 1020.7
20260830143908 68 315 0.0 0.0 0.00 0.00 0.00 85 1020.7
20260830142908 68 235 0.0 1.7 0.00 0.00 0.00 83 1020.7
20260830141908 68 154 0.0 0.9 0.00 0.00 0.00 83 1020.3
20260830140908 69 282 0.9 1.7 0.00 0.00 0.00 80 1020.3